CW5444 Weather Reports


time (UTC)temp
F
wind
direction
speed
knots
gust
knots
rain 1hr
in
rain 24hr
in
rain mn
in
humidity
%
barometer
mb
20260507212415 56 196 3.5 10.4 0.00 0.33 0.20 69 1012.7
20260507211425 57 205 4.3 7.8 0.00 0.33 0.20 68 1012.7
20260507210432 57 187 3.5 6.1 0.00 0.33 0.20 72 1012.5
20260507205419 55 206 1.7 4.3 0.00 0.33 0.20 74 1012.5
20260507204425 54 215 1.7 6.1 0.00 0.33 0.20 79 1012.5
20260507203432 53 211 3.5 6.1 0.00 0.33 0.20 78 1012.5
20260507202438 53 195 1.7 5.2 0.00 0.33 0.20 80 1012.6
20260507201417 53 205 2.6 5.2 0.00 0.33 0.20 80 1012.7
20260507200426 53 220 0.0 3.5 0.00 0.33 0.20 80 1012.6
20260507195429 53 210 1.7 2.6 0.00 0.33 0.20 80 1012.5
20260507194435 52 267 1.7 4.3 0.00 0.33 0.20 81 1012.6
20260507193422 52 207 0.9 2.6 0.00 0.33 0.20 82 1012.6
20260507192432 52 207 1.7 5.2 0.00 0.33 0.20 83 1012.7
20260507191421 52 193 1.7 5.2 0.00 0.33 0.20 84 1012.8
20260507190423 51 205 1.7 3.5 0.00 0.33 0.20 85 1013.1
20260507185433 51 194 0.9 3.5 0.00 0.33 0.20 86 1013.0
20260507184439 51 228 2.6 3.5 0.00 0.33 0.20 85 1013.1
20260507183445 51 213 1.7 4.3 0.00 0.33 0.20 86 1013.0
20260507182432 51 211 1.7 3.5 0.00 0.33 0.20 87 1013.0
20260507181419 51 207 0.9 4.3 0.00 0.33 0.20 87 1012.9
20260507180425 51 198 1.7 4.3 0.00 0.33 0.20 87 1012.9
20260507175432 51 209 2.6 6.1 0.00 0.33 0.20 87 1013.0
20260507174437 51 219 1.7 5.2 0.00 0.33 0.20 88 1012.9
20260507173421 51 211 0.0 3.5 0.00 0.33 0.20 89 1012.8
20260507172429 52 192 1.7 4.3 0.00 0.33 0.20 89 1012.9
20260507171420 52 209 1.7 6.1 0.00 0.33 0.20 88 1012.8
20260507170427 52 257 1.7 6.1 0.00 0.33 0.20 89 1012.8
20260507165434 52 227 1.7 4.3 0.00 0.33 0.20 90 1012.8
20260507164421 52 208 0.9 3.5 0.00 0.33 0.20 90 1012.8
20260507163430 52 231 2.6 3.5 0.00 0.33 0.20 89 1012.7
20260507162418 52 203 1.7 3.5 0.00 0.33 0.20 89 1012.8
20260507161424 52 225 1.7 3.5 0.00 0.33 0.20 89 1012.7
20260507160451 52 240 0.9 3.5 0.00 0.33 0.20 90 1012.6
20260507155419 52 235 2.6 7.0 0.00 0.37 0.20 90 1012.5
20260507154426 52 242 1.7 3.5 0.00 0.37 0.20 91 1012.5
20260507153430 52 296 2.6 5.2 0.00 0.37 0.20 91 1012.5
20260507152421 52 237 0.9 4.3 0.00 0.37 0.20 92 1012.4
20260507151430 51 267 0.9 2.6 0.01 0.37 0.20 92 1012.5
20260507150416 50 200 0.9 4.3 0.02 0.37 0.20 91 1012.8
20260507145424 50 246 1.7 4.3 0.02 0.38 0.20 91 1012.7
20260507144433 51 264 0.0 4.3 0.02 0.38 0.20 91 1012.7
20260507143419 51 286 1.7 6.1 0.02 0.38 0.20 92 1012.6
20260507142426 51 252 0.9 3.5 0.02 0.38 0.20 91 1012.6
20260507141432 51 205 1.7 4.3 0.01 0.37 0.19 91 1012.7
20260507140419 52 268 1.7 2.6 0.00 0.36 0.18 92 1012.6
20260507135426 52 318 0.0 5.2 0.00 0.37 0.18 92 1012.4
20260507134435 52 340 1.7 4.3 0.00 0.37 0.18 92 1012.2
20260507133420 52 329 1.7 3.5 0.00 0.37 0.18 92 1012.3
20260507132426 52 336 1.7 3.5 0.00 0.37 0.18 92 1012.4
20260507131433 52 288 2.6 4.3 0.00 0.37 0.18 92 1012.4
20260507130422 52 329 2.6 7.0 0.00 0.37 0.18 93 1012.2
20260507125430 52 341 1.7 4.3 0.00 0.48 0.18 93 1012.3
20260507124435 52 284 1.7 3.5 0.00 0.48 0.18 93 1012.3
20260507123421 52 292 0.9 2.6 0.00 0.48 0.18 93 1012.3
20260507122429 52 282 0.0 1.7 0.00 0.48 0.18 93 1012.3
20260507121419 52 281 0.0 1.7 0.00 0.48 0.18 93 1012.6
20260507120428 52 281 0.0 0.0 0.00 0.48 0.18 93 1012.7
20260507115416 52 281 0.9 1.7 0.00 0.61 0.18 93 1012.7
20260507114423 52 331 0.0 0.9 0.00 0.61 0.18 93 1012.6
20260507113428 52 331 0.9 1.7 0.00 0.61 0.18 93 1012.1
20260507112456 52 331 0.0 2.6 0.00 0.61 0.18 93 1012.2
20260507111420 52 344 1.7 5.2 0.01 0.61 0.18 93 1012.1
20260507110426 52 339 0.9 3.5 0.01 0.61 0.18 93 1012.1
20260507105434 52 258 0.0 2.6 0.01 0.69 0.18 93 1012.0
20260507104442 53 256 0.0 2.6 0.01 0.69 0.18 92 1012.0
20260507103428 53 224 0.0 2.6 0.01 0.69 0.18 93 1011.9
20260507102418 53 221 0.9 5.2 0.02 0.69 0.18 92 1011.9
20260507101424 54 201 1.7 4.3 0.01 0.68 0.17 93 1011.9
20260507100448 54 219 0.0 0.0 0.02 0.68 0.17 93 1011.7
20260507095432 54 219 0.0 0.0 0.02 0.68 0.17 93 1011.4
20260507094419 54 219 0.0 2.6 0.02 0.68 0.17 93 1011.6
20260507093424 54 236 0.9 1.7 0.02 0.68 0.17 93 1011.5
20260507092429 54 237 0.9 2.6 0.01 0.67 0.16 92 1011.2
20260507091433 54 254 0.9 3.5 0.01 0.67 0.16 92 1011.3
20260507090419 54 242 1.7 3.5 0.00 0.66 0.15 92 1011.7
20260507085426 54 206 0.0 4.3 0.00 0.66 0.15 93 1011.9
20260507084430 54 198 0.9 1.7 0.00 0.66 0.15 93 1011.4
20260507083440 54 198 0.0 3.5 0.00 0.66 0.15 93 1011.4
20260507082447 54 205 0.0 0.0 0.00 0.66 0.15 93 1011.7
20260507081433 55 173 0.0 0.0 0.00 0.66 0.15 93 1011.8
20260507080415 55 173 0.0 0.0 0.00 0.66 0.15 93 1011.5
20260507075420 55 173 0.0 0.0 0.00 0.66 0.15 93 1011.0
20260507074427 55 173 0.0 0.0 0.00 0.66 0.15 93 1011.6
20260507073433 55 173 0.0 0.0 0.03 0.66 0.15 93 1011.3
20260507072420 55 173 0.0 0.0 0.04 0.66 0.15 92 1011.3
20260507071428 55 148 0.0 2.6 0.11 0.66 0.15 93 1011.6
20260507070433 56 148 0.0 4.3 0.14 0.66 0.15 93 1011.8
20260507065422 56 194 0.0 2.6 0.14 0.66 0.15 93 1011.5
20260507064433 57 195 0.9 3.5 0.14 0.66 0.15 93 1011.8
20260507063420 57 219 1.7 5.2 0.11 0.63 0.12 92 1011.9
20260507062429 59 327 1.7 6.1 0.10 0.62 0.11 92 1011.7
20260507061434 60 187 2.6 7.0 0.03 0.55 0.04 94 1011.8
20260507060418 60 186 2.6 7.0 0.01 0.52 0.01 94 1011.9
20260507055421 60 178 2.6 6.1 0.01 0.52 0.01 94 1011.7
20260507054425 60 184 1.7 5.2 0.01 0.52 0.01 94 1011.8
20260507053431 60 179 0.9 4.3 0.01 0.52 0.01 93 1011.7
20260507052416 60 176 0.0 1.7 0.01 0.52 0.01 93 1011.8
20260507051424 60 177 0.0 1.7 0.00 0.51 0.00 93 1011.7
20260507050432 60 177 0.9 3.5 0.00 0.51 0.00 93 1012.3
20260507045418 60 155 0.9 5.2 0.00 0.51 0.00 93 1012.9
20260507044423 60 153 1.7 5.2 0.00 0.51 0.00 93 1012.9
20260507043429 60 167 1.7 7.0 0.00 0.51 0.00 93 1013.2
20260507042416 60 178 1.7 7.8 0.00 0.51 0.00 93 1013.2
20260507041425 60 178 1.7 5.2 0.00 0.51 0.00 93 1012.9
20260507040430 60 174 0.9 4.3 0.00 0.51 0.00 93 1012.7
20260507035415 60 181 0.9 4.3 0.00 0.51 0.51 93 1012.7
20260507034420 60 167 0.9 4.3 0.00 0.51 0.51 92 1012.5
20260507033427 60 152 0.9 5.2 0.01 0.51 0.51 92 1012.6
20260507032434 60 180 0.9 2.6 0.01 0.51 0.51 92 1012.6
20260507031419 60 167 0.9 3.5 0.01 0.51 0.51 92 1012.7
20260507030427 60 180 0.0 1.7 0.04 0.51 0.51 92 1012.7
20260507025432 60 167 0.9 3.5 0.08 0.51 0.51 92 1012.7
20260507024439 60 194 0.0 3.5 0.09 0.51 0.51 92 1012.7
20260507023444 61 190 1.7 7.0 0.08 0.50 0.50 91 1012.9
20260507022429 61 173 3.5 13.0 0.08 0.50 0.50 91 1013.4
20260507021415 61 204 4.3 7.8 0.09 0.50 0.50 91 1013.7
20260507020422 61 162 4.3 8.7 0.07 0.47 0.47 91 1013.8
20260507015426 62 167 3.5 7.0 0.03 0.43 0.43 91 1013.3
20260507014431 62 136 2.6 7.8 0.03 0.42 0.42 91 1013.4
20260507013437 62 182 3.5 9.6 0.03 0.42 0.42 91 1013.0
20260507012420 63 187 1.7 6.1 0.03 0.42 0.42 91 1013.0
20260507011429 63 178 2.6 7.8 0.02 0.41 0.41 90 1012.9
20260507010435 63 190 3.5 7.8 0.02 0.40 0.40 90 1012.9
20260507005420 63 155 1.7 5.2 0.02 0.40 0.40 90 1012.5
20260507004428 63 176 2.6 7.0 0.01 0.39 0.39 89 1012.2
20260507003432 64 161 0.9 4.3 0.01 0.39 0.39 88 1012.0
20260507002454 64 187 0.9 5.2 0.01 0.39 0.39 87 1011.8
20260507001419 65 171 0.0 3.5 0.01 0.39 0.39 86 1011.8
20260507000427 65 185 1.7 6.1 0.00 0.38 0.38 84 1012.1
20260506235430 66 188 0.9 4.3 0.00 0.38 0.38 83 1012.1
20260506234417 66 167 1.7 6.1 0.00 0.38 0.38 83 1011.9
20260506233424 66 183 0.9 3.5 0.00 0.38 0.38 83 1012.0
20260506232416 66 180 0.9 3.5 0.00 0.38 0.38 83 1011.9
20260506231423 66 193 2.6 5.2 0.00 0.38 0.38 82 1011.7
20260506230430 66 194 2.6 6.1 0.00 0.38 0.38 82 1011.9
20260506225418 67 177 1.7 7.0 0.00 0.38 0.38 81 1012.1
20260506224426 67 157 1.7 4.3 0.00 0.38 0.38 82 1012.1
20260506223450 67 171 2.6 6.1 0.00 0.38 0.38 81 1012.0
20260506222416 67 174 3.5 7.0 0.00 0.38 0.38 82 1012.0
20260506221424 67 136 1.7 7.0 0.00 0.38 0.38 81 1012.0
20260506220453 67 189 2.6 4.3 0.00 0.38 0.38 81 1011.9
20260506215420 67 190 2.6 12.2 0.00 0.38 0.38 81 1012.1
20260506214427 67 180 4.3 10.4 0.00 0.38 0.38 81 1012.6
20260506213435 67 173 5.2 8.7 0.00 0.38 0.38 81 1012.4